CW9363 Weather Reports


Display with metric or nautical units.
time (UTC)temp
F
wind
direction
speed
MPH
gust
MPH
rain 1hr
in
rain 24hr
in
rain mn
in
humidity
%
barometer
mb
20260503202432 79 0 0.0 1.0 0.00 0.00 0.00 47 1014.2
20260503201930 79 135 0.0 2.0 0.00 0.00 0.00 46 1014.3
20260503201427 78 82 0.0 1.0 0.00 0.00 0.00 48 1014.3
20260503200924 78 345 2.0 2.0 0.00 0.00 0.00 47 1014.4
20260503200420 78 180 0.0 1.0 0.00 0.00 0.00 49 1014.5
20260503195917 78 14 0.0 1.0 0.00 0.00 0.00 50 1014.6
20260503195415 78 270 0.0 2.0 0.00 0.00 0.00 50 1014.8
20260503194911 77 96 0.0 2.0 0.00 0.00 0.00 48 1014.7
20260503194408 77 285 0.0 2.0 0.00 0.00 0.00 50 1014.9
20260503193903 77 228 2.0 3.0 0.00 0.00 0.00 49 1015.0
20260503193359 76 173 0.0 2.0 0.00 0.00 0.00 49 1015.0
20260503192855 76 12 1.0 1.0 0.00 0.00 0.00 53 1015.2
20260503192350 76 99 0.0 1.0 0.00 0.00 0.00 53 1015.1
20260503191847 75 255 0.0 0.0 0.00 0.00 0.00 52 1015.2
20260503191344 75 18 1.0 3.0 0.00 0.00 0.00 54 1015.2
20260503190835 75 96 1.0 1.0 0.00 0.00 0.00 54 1015.4
20260503190333 75 82 1.0 2.0 0.00 0.00 0.00 54 1015.5
20260503185830 75 8 0.0 2.0 0.00 0.00 0.00 56 1015.5
20260503185325 74 40 0.0 2.0 0.00 0.00 0.00 56 1015.6
20260503184820 74 28 2.0 2.0 0.00 0.00 0.00 56 1015.5
20260503184316 74 90 0.0 1.0 0.00 0.00 0.00 56 1015.6
20260503183812 74 270 0.0 3.0 0.00 0.00 0.00 56 1015.7
20260503183310 73 135 0.0 2.0 0.00 0.00 0.00 57 1015.6
20260503182807 73 90 0.0 0.0 0.00 0.00 0.00 57 1015.7
20260503182306 73 74 0.0 1.0 0.00 0.00 0.00 58 1015.7
20260503181803 73 328 0.0 0.0 0.00 0.00 0.00 57 1015.6
20260503181300 72 98 0.0 1.0 0.00 0.00 0.00 60 1015.8
20260503180756 72 145 0.0 3.0 0.00 0.00 0.00 59 1016.0
20260503180254 71 66 1.0 2.0 0.00 0.00 0.00 59 1015.9
20260503175750 71 208 2.0 3.0 0.00 0.00 0.00 59 1015.9
20260503175249 71 90 1.0 1.0 0.00 0.00 0.00 63 1015.8
20260503174744 71 63 0.0 2.0 0.00 0.00 0.00 61 1015.8
20260503174242 70 157 0.0 1.0 0.00 0.00 0.00 61 1016.0
20260503173742 69 216 2.0 2.0 0.00 0.00 0.00 63 1016.0
20260503173239 69 71 0.0 1.0 0.00 0.00 0.00 65 1016.1
20260503172736 69 194 0.0 2.0 0.00 0.00 0.00 65 1016.1
20260503172233 68 35 0.0 0.0 0.00 0.00 0.00 66 1016.2
20260503171729 68 74 0.0 1.0 0.00 0.00 0.00 68 1016.0
20260503171226 67 81 0.0 0.0 0.00 0.00 0.00 68 1016.1
20260503170723 67 0 0.0 0.0 0.00 0.00 0.00 67 1016.2
20260503170220 67 33 2.0 2.0 0.00 0.00 0.00 68 1016.2
20260503160142 61 74 0.0 1.0 0.00 0.00 0.00 85 1016.3
20260503150612 57 75 1.0 2.0 0.00 0.00 0.00 91 1016.5
20260503150108 57 69 1.0 2.0 0.00 0.00 0.00 92 1016.4
20260503131001 52 74 0.0 2.0 0.00 0.00 0.00 95 1016.2
20260503130459 52 90 0.0 0.0 0.00 0.00 0.00 95 1016.1
20260503110344 54 81 0.0 1.0 0.00 0.00 0.00 93 1016.4
20260503090229 55 40 0.0 2.0 0.00 0.00 0.00 91 1016.7
20260503081156 57 82 0.0 1.0 0.00 0.00 0.00 91 1016.8
20260503080652 56 97 1.0 2.0 0.00 0.00 0.00 91 1016.8
20260503080149 56 90 0.0 1.0 0.00 0.00 0.00 91 1016.7
20260503072626 58 123 2.0 2.0 0.00 0.00 0.00 87 1016.8
20260503072123 58 74 2.0 2.0 0.00 0.00 0.00 88 1016.9
20260503071619 57 114 1.0 2.0 0.00 0.00 0.00 88 1016.8
20260503071116 57 81 0.0 1.0 0.00 0.00 0.00 88 1016.8
20260503070613 57 98 0.0 1.0 0.00 0.00 0.00 88 1016.7
20260503070111 57 90 0.0 1.0 0.00 0.00 0.00 87 1016.6
20260503055032 58 90 0.0 1.0 0.00 0.00 0.00 88 1016.8
20260503054528 58 111 0.0 1.0 0.00 0.00 0.00 88 1016.8
20260503054026 58 99 0.0 1.0 0.00 0.00 0.00 88 1016.8
20260503053523 58 160 0.0 1.0 0.00 0.00 0.00 88 1016.8
20260503053021 59 90 0.0 0.0 0.00 0.00 0.00 87 1016.9
20260503052517 59 90 0.0 1.0 0.00 0.00 0.00 86 1016.9
20260503052014 59 81 0.0 0.0 0.00 0.00 0.00 87 1017.0
20260503051509 59 74 0.0 0.0 0.00 0.00 0.00 86 1016.7
20260503051007 60 74 0.0 0.0 0.00 0.00 0.00 85 1016.9
20260503050503 60 74 0.0 0.0 0.00 0.00 0.00 85 1016.8
20260503050001 60 90 0.0 0.0 0.00 0.00 0.00 85 1016.8
20260503045458 60 74 0.0 0.0 0.00 0.00 0.00 85 1016.7
20260503044954 60 106 0.0 0.0 0.00 0.00 0.00 85 1016.7
20260503044451 60 106 0.0 0.0 0.00 0.00 0.00 85 1016.7
20260503043949 60 90 0.0 1.0 0.00 0.00 0.00 85 1016.7
20260503043444 60 15 0.0 1.0 0.00 0.00 0.00 84 1016.7
20260503042941 62 90 0.0 0.0 0.00 0.00 0.00 80 1016.4
20260503042438 63 90 0.0 0.0 0.00 0.00 0.00 78 1016.5
20260503041935 63 90 0.0 1.0 0.00 0.00 0.00 78 1016.4
20260503041431 63 90 0.0 1.0 0.00 0.00 0.00 76 1016.2
20260503040929 64 82 0.0 1.0 0.00 0.00 0.00 75 1016.1
20260503040426 64 90 0.0 1.0 0.00 0.00 0.00 74 1016.0
20260503035924 64 90 1.0 2.0 0.00 0.00 0.00 73 1015.8
20260503035420 64 99 0.0 1.0 0.00 0.00 0.00 72 1016.0
20260503034918 65 90 0.0 0.0 0.00 0.00 0.00 74 1015.9
20260503034415 65 90 0.0 0.0 0.00 0.00 0.00 74 1015.7
20260503033912 66 90 0.0 0.0 0.00 0.00 0.00 74 1015.6
20260503033409 66 90 0.0 0.0 0.00 0.00 0.00 72 1015.5
20260503032907 66 90 0.0 0.0 0.00 0.00 0.00 70 1015.4
20260503032406 67 74 0.0 0.0 0.00 0.00 0.00 68 1015.4
20260503031903 68 74 0.0 0.0 0.00 0.00 0.00 68 1015.5
20260503031401 68 74 0.0 0.0 0.00 0.00 0.00 67 1015.4
20260503030857 68 74 0.0 0.0 0.00 0.00 0.00 64 1015.3
20260503030353 68 74 0.0 0.0 0.00 0.00 0.00 64 1015.2
20260503025850 68 81 0.0 0.0 0.00 0.00 0.00 63 1015.0
20260503025347 69 84 0.0 1.0 0.00 0.00 0.00 64 1015.1
20260503024845 69 60 0.0 1.0 0.00 0.00 0.00 65 1015.2
20260503024341 69 90 0.0 0.0 0.00 0.00 0.00 65 1014.9
20260503023838 69 74 0.0 1.0 0.00 0.00 0.00 64 1015.0
20260503023335 69 90 0.0 0.0 0.00 0.00 0.00 64 1014.9
20260503022831 70 81 0.0 0.0 0.00 0.00 0.00 63 1015.1
20260503022326 70 81 0.0 1.0 0.00 0.00 0.00 62 1014.9
20260503021823 70 82 0.0 1.0 0.00 0.00 0.00 62 1014.9
20260503021319 70 90 0.0 0.0 0.00 0.00 0.00 63 1014.9
20260503020817 70 90 0.0 0.0 0.00 0.00 0.00 62 1014.9
20260503020315 70 90 0.0 0.0 0.00 0.00 0.00 63 1014.8
20260503015811 71 82 1.0 1.0 0.00 0.00 0.00 62 1014.8
20260503015308 71 35 0.0 1.0 0.00 0.00 0.00 61 1015.0
20260503014803 71 81 0.0 0.0 0.00 0.00 0.00 62 1015.0
20260503014302 71 26 0.0 2.0 0.00 0.00 0.00 62 1014.7
20260503013758 71 66 0.0 2.0 0.00 0.00 0.00 61 1014.8
20260503013256 71 63 1.0 2.0 0.00 0.00 0.00 60 1014.9
20260503012753 72 29 1.0 1.0 0.00 0.00 0.00 60 1014.7
20260503012250 72 90 0.0 2.0 0.00 0.00 0.00 59 1015.0
20260503011747 72 286 1.0 1.0 0.00 0.00 0.00 57 1015.0
20260503011244 73 66 0.0 0.0 0.00 0.00 0.00 58 1014.9
20260503010740 73 111 1.0 1.0 0.00 0.00 0.00 57 1015.0
20260503010237 73 82 1.0 1.0 0.00 0.00 0.00 57 1014.9
20260503005734 73 6 0.0 2.0 0.00 0.00 0.00 56 1015.0
20260503005232 73 0 0.0 2.0 0.00 0.00 0.00 57 1015.0
20260503004727 73 353 0.0 0.0 0.00 0.00 0.00 56 1015.1
20260503004226 73 320 0.0 2.0 0.00 0.00 0.00 56 1014.9
20260503003723 73 353 0.0 2.0 0.00 0.00 0.00 56 1015.0
20260503003220 74 166 0.0 2.0 0.00 0.00 0.00 55 1015.0
20260503002716 74 0 0.0 2.0 0.00 0.00 0.00 56 1014.9
20260503002213 74 0 0.0 2.0 0.00 0.00 0.00 55 1015.0
20260503001709 74 0 1.0 2.0 0.00 0.00 0.00 55 1015.1
20260503001206 74 0 0.0 2.0 0.00 0.00 0.00 56 1014.9
20260503000704 74 270 0.0 2.0 0.00 0.00 0.00 56 1015.0
20260503000203 73 355 0.0 1.0 0.00 0.00 0.00 57 1015.1
20260502235658 73 90 0.0 3.0 0.00 0.00 0.00 56 1015.0
20260502235156 74 60 2.0 2.0 0.00 0.00 0.00 55 1015.2
20260502234652 74 11 0.0 2.0 0.00 0.00 0.00 56 1015.2
20260502234149 73 342 0.0 1.0 0.00 0.00 0.00 57 1015.4
20260502233645 73 0 0.0 2.0 0.00 0.00 0.00 56 1015.3
20260502233142 73 222 3.0 3.0 0.00 0.00 0.00 56 1015.4
20260502232638 73 78 2.0 2.0 0.00 0.00 0.00 57 1015.5
20260502232136 73 98 2.0 3.0 0.00 0.00 0.00 56 1015.7
20260502231632 73 90 0.0 3.0 0.00 0.00 0.00 57 1015.5
20260502231130 73 74 2.0 3.0 0.00 0.00 0.00 58 1015.5
20260502230628 73 29 1.0 2.0 0.00 0.00 0.00 57 1015.8
20260502230126 73 0 0.0 3.0 0.00 0.00 0.00 56 1015.9
20260502225621 73 0 0.0 2.0 0.00 0.00 0.00 56 1016.0
20260502225118 73 114 0.0 3.0 0.00 0.00 0.00 56 1015.9
20260502224615 73 57 2.0 3.0 0.00 0.00 0.00 56 1016.0
20260502224112 73 340 1.0 3.0 0.00 0.00 0.00 56 1016.0
20260502223609 72 40 0.0 2.0 0.00 0.00 0.00 59 1016.2
20260502223108 72 117 1.0 3.0 0.00 0.00 0.00 57 1016.2
20260502222605 72 60 0.0 1.0 0.00 0.00 0.00 57 1016.5
20260502222101 72 114 0.0 2.0 0.00 0.00 0.00 57 1016.3
20260502221556 72 216 0.0 2.0 0.00 0.00 0.00 57 1016.5
20260502221054 72 63 1.0 2.0 0.00 0.00 0.00 59 1016.5
20260502220550 71 340 0.0 1.0 0.00 0.00 0.00 58 1016.5
20260502220047 71 99 0.0 1.0 0.00 0.00 0.00 58 1016.7
20260502215544 71 90 0.0 2.0 0.00 0.00 0.00 59 1016.8
20260502215041 71 324 0.0 2.0 0.00 0.00 0.00 60 1016.6
20260502214538 70 353 1.0 1.0 0.00 0.00 0.00 59 1016.9
20260502214035 70 277 1.0 1.0 0.00 0.00 0.00 60 1016.9
20260502213532 70 71 1.0 2.0 0.00 0.00 0.00 61 1016.9
20260502213030 70 352 2.0 2.0 0.00 0.00 0.00 61 1017.0
20260502212528 70 75 1.0 2.0 0.00 0.00 0.00 61 1017.1
20260502212026 70 270 0.0 2.0 0.00 0.00 0.00 62 1017.2
20260502211521 70 0 1.0 3.0 0.00 0.00 0.00 59 1017.1
20260502211018 69 185 1.0 4.0 0.00 0.00 0.00 60 1017.2
20260502210515 69 74 2.0 2.0 0.00 0.00 0.00 61 1017.1
20260502210012 69 102 0.0 2.0 0.00 0.00 0.00 62 1017.2
20260502205509 69 236 2.0 2.0 0.00 0.00 0.00 62 1017.2
20260502205006 69 90 0.0 1.0 0.00 0.00 0.00 63 1017.5
20260502204503 69 8 3.0 4.0 0.00 0.00 0.00 62 1017.3
20260502204001 69 270 0.0 2.0 0.00 0.00 0.00 61 1017.4
20260502203457 68 180 0.0 1.0 0.00 0.00 0.00 62 1017.5
20260502202954 68 77 1.0 2.0 0.00 0.00 0.00 64 1017.6